TimeEST,TemperatureF,Dew PointF,Humidity,Sea Level PressureIn,VisibilityMPH,Wind Direction,Wind SpeedMPH,Gust SpeedMPH,PrecipitationIn,Events,Conditions,WindDirDegrees,DateUTC
12:53 AM,24.1,18.0,77,30.27,10.0,WSW,17.3,-,N/A,,Clear,250,2013-01-05 05:53:00
1:53 AM,24.1,18.0,77,30.27,10.0,WSW,13.8,-,N/A,,Clear,250,2013-01-05 06:53:00
2:53 AM,23.0,17.1,78,30.29,9.0,WSW,10.4,-,N/A,,Clear,240,2013-01-05 07:53:00
3:53 AM,21.9,17.1,82,30.30,9.0,WSW,8.1,-,N/A,,Clear,240,2013-01-05 08:53:00
4:53 AM,21.9,16.0,78,30.31,9.0,WSW,6.9,-,N/A,,Clear,240,2013-01-05 09:53:00
6:53 AM,16.0,12.9,88,30.32,7.0,South,6.9,-,N/A,,Clear,180,2013-01-05 11:53:00
7:53 AM,16.0,14.0,92,30.32,5.0,South,8.1,-,N/A,,Clear,170,2013-01-05 12:53:00
8:53 AM,16.0,14.0,92,30.33,5.0,South,8.1,-,N/A,,Clear,180,2013-01-05 13:53:00
9:53 AM,19.9,16.0,85,30.32,5.0,South,8.1,-,N/A,,Clear,190,2013-01-05 14:53:00
10:53 AM,23.0,19.0,85,30.32,6.0,SSW,10.4,-,N/A,,Clear,200,2013-01-05 15:53:00
11:53 AM,27.0,21.9,81,30.29,8.0,South,12.7,-,N/A,,Clear,190,2013-01-05 16:53:00
12:53 PM,28.9,23.0,78,30.23,9.0,South,8.1,-,N/A,,Clear,190,2013-01-05 17:53:00
1:53 PM,30.9,24.1,76,30.20,10.0,South,12.7,-,N/A,,Clear,190,2013-01-05 18:53:00
2:53 PM,30.9,24.1,76,30.18,9.0,South,11.5,-,N/A,,Clear,190,2013-01-05 19:53:00
3:53 PM,33.1,25.0,72,30.17,10.0,South,15.0,-,N/A,,Clear,190,2013-01-05 20:53:00
4:53 PM,32.0,25.0,75,30.15,10.0,South,10.4,-,N/A,,Overcast,190,2013-01-05 21:53:00
5:53 PM,34.0,25.0,70,30.15,10.0,SSW,12.7,-,N/A,,Overcast,200,2013-01-05 22:53:00
6:53 PM,35.1,26.1,70,30.15,10.0,SSW,13.8,-,N/A,,Overcast,200,2013-01-05 23:53:00
7:53 PM,35.1,27.0,72,30.15,10.0,SW,10.4,-,N/A,,Overcast,230,2013-01-06 00:53:00
8:53 PM,34.0,27.0,75,30.13,10.0,SSW,12.7,-,N/A,,Overcast,210,2013-01-06 01:53:00
9:53 PM,33.1,28.0,82,30.13,9.0,SSW,12.7,-,N/A,,Overcast,210,2013-01-06 02:53:00
10:53 PM,33.1,28.0,82,30.12,10.0,SSW,12.7,-,0.00,,Overcast,210,2013-01-06 03:53:00
11:53 PM,34.0,28.9,82,30.10,9.0,SSW,15.0,-,N/A,,Overcast,210,2013-01-06 04:53:00